Buckeye, AZ

4:43 PM MST on December 11, 2017 (GMT -0700)
Buckeye Municipal

Weather History for KBXK - April, 2014

Change the Weather History Date:

Tuesday, April 29, 2014

  Actual Average (KGYR) Record (KGYR)
Temperature  
Mean Temperature 73 °F -  
Max Temperature 84 °F 86 °F 102 °F (2013)
Min Temperature 62 °F 58 °F 50 °F (1999)
Cooling Degree Days 8    
Growing Degree Days 23 (Base 50)    
Moisture  
Dew Point 5 °F    
Average Humidity 7    
Maximum Humidity 14    
Minimum Humidity 4    
Precipitation  
Precipitation 0.00 in - - ()
Sea Level Pressure  
Sea Level Pressure 30.01 in    
Wind  
Wind Speed 13 mph (NE)    
Max Wind Speed 24 mph    
Max Gust Speed 33 mph    
Visibility 10 miles    
Events      
Averages and records for this station are not official NWS values.
T = Trace of Precipitation, MM = Missing Value Source: NWS Daily Summary

Daily Weather History Graph

Daily Weather History Graph

Search for Another Location

Airport or City:

Trip Planner

Search our weather history database for the weather conditions in past years. The results will help you decide how hot, cold, wet, or windy it might be!

Date:

Astronomy

Apr. 29, 2014 Rise Set
Actual Time 5:44 AM MST 7:12 PM MST
Civil Twilight 5:18 AM MST 7:38 PM MST
Nautical Twilight 4:46 AM MST 8:10 PM MST
Astronomical Twilight 4:13 AM MST 8:43 PM MST
Moon 6:04 AM MST (4/29) 7:55 PM MST (4/29)
Length of Visible Light 14h 20m
Length of Day
13h 27m
New Moon, 0% of the Moon is Illuminated
Apr 29
New Moon
May 6
First Quarter
May 14
Full
May 21
Last Quarter
May 28
New

Hourly Weather History & Observations

Time (MST) Temp. Dew Point Humidity Pressure Visibility Wind Dir Wind Speed Gust Speed Precip Events Conditions
12:15 AM 71.6 °F 10.4 °F 9% 29.95 in 10.0 mi North 11.5 mph - N/A   Clear
12:35 AM 71.6 °F 10.4 °F 9% 29.96 in 10.0 mi North 13.8 mph - N/A   Clear
12:55 AM 71.6 °F 10.4 °F 9% 29.96 in 10.0 mi North 11.5 mph - N/A   Clear
1:15 AM 71.6 °F 10.4 °F 9% 29.97 in 10.0 mi North 12.7 mph - N/A   Clear
1:35 AM 69.8 °F 10.4 °F 10% 29.96 in 10.0 mi North 12.7 mph 18.4 mph N/A   Clear
1:55 AM 69.8 °F 10.4 °F 10% 29.97 in 10.0 mi North 11.5 mph - N/A   Clear
2:15 AM 68.0 °F 12.2 °F 12% 29.97 in 10.0 mi North 9.2 mph - N/A   Clear
2:35 AM 66.2 °F 12.2 °F 12% 29.98 in 10.0 mi North 10.4 mph - N/A   Clear
2:55 AM 66.2 °F 12.2 °F 12% 29.98 in 10.0 mi North 10.4 mph - N/A   Clear
3:15 AM 64.4 °F 14.0 °F 14% 29.99 in 10.0 mi ENE 4.6 mph - N/A   Clear
3:35 AM 66.2 °F 10.4 °F 11% 30.00 in 10.0 mi NNE 5.8 mph - N/A   Clear
3:55 AM 62.6 °F 10.4 °F 13% 30.01 in 10.0 mi NNE 8.1 mph - N/A   Clear
4:15 AM 68.0 °F 10.4 °F 11% 30.01 in 10.0 mi NE 11.5 mph - N/A   Clear
4:35 AM 66.2 °F 10.4 °F 11% 30.01 in 10.0 mi NNE 10.4 mph - N/A   Clear
4:55 AM 66.2 °F 8.6 °F 11% 30.02 in 10.0 mi NNE 9.2 mph - N/A   Clear
5:15 AM 64.4 °F 10.4 °F 12% 30.02 in 10.0 mi NE 8.1 mph - N/A   Clear
5:35 AM 64.4 °F 8.6 °F 11% 30.03 in 10.0 mi NNE 11.5 mph - N/A   Clear
5:55 AM 66.2 °F 8.6 °F 11% 30.04 in 10.0 mi NNE 16.1 mph 21.9 mph N/A   Clear
6:15 AM 66.2 °F 8.6 °F 11% 30.05 in 10.0 mi NE 17.3 mph 25.3 mph N/A   Clear
6:35 AM 68.0 °F 6.8 °F 9% 30.06 in 10.0 mi NNE 16.1 mph 25.3 mph N/A   Clear
6:55 AM 68.0 °F 6.8 °F 9% 30.06 in 10.0 mi NNE 20.7 mph 29.9 mph N/A   Clear
7:15 AM 68.0 °F 6.8 °F 9% 30.07 in 10.0 mi NNE 20.7 mph 29.9 mph N/A   Clear
7:35 AM 69.8 °F 6.8 °F 9% 30.08 in 10.0 mi NNE 21.9 mph 27.6 mph N/A   Clear
7:55 AM 71.6 °F 6.8 °F 8% 30.09 in 10.0 mi NNE 21.9 mph 29.9 mph N/A   Clear
8:15 AM 71.6 °F 5.0 °F 7% 30.09 in 10.0 mi NNE 24.2 mph 33.4 mph N/A   Clear
8:35 AM 71.6 °F 5.0 °F 7% 30.10 in 10.0 mi NNE 21.9 mph 27.6 mph N/A   Clear
8:55 AM 73.4 °F 6.8 °F 8% 30.10 in 10.0 mi NNE 16.1 mph 25.3 mph N/A   Clear
9:15 AM 73.4 °F 6.8 °F 8% 30.10 in 10.0 mi ENE 12.7 mph 20.7 mph N/A   Clear
9:35 AM 73.4 °F 6.8 °F 8% 30.10 in 10.0 mi NE 13.8 mph 21.9 mph N/A   Clear
9:55 AM 75.2 °F 6.8 °F 7% 30.10 in 10.0 mi NNE 20.7 mph 28.8 mph N/A   Clear
10:15 AM 75.2 °F 5.0 °F 7% 30.10 in 10.0 mi NNE 18.4 mph 25.3 mph N/A   Clear
10:35 AM 75.2 °F 5.0 °F 7% 30.10 in 10.0 mi NNE 23.0 mph 31.1 mph N/A   Clear
10:55 AM 77.0 °F 5.0 °F 6% 30.10 in 10.0 mi NNE 16.1 mph 28.8 mph N/A   Clear
11:15 AM 77.0 °F 5.0 °F 6% 30.09 in 10.0 mi NNE 16.1 mph 29.9 mph N/A   Clear
11:35 AM 77.0 °F 3.2 °F 6% 30.08 in 10.0 mi NE 15.0 mph 29.9 mph N/A   Clear
11:55 AM 77.0 °F 3.2 °F 6% 30.07 in 10.0 mi NE 19.6 mph 25.3 mph N/A   Clear
12:15 PM 78.8 °F 3.2 °F 5% 30.06 in 10.0 mi NE 10.4 mph 24.2 mph N/A   Clear
12:35 PM 80.6 °F 1.4 °F 5% 30.06 in 10.0 mi NNE 12.7 mph 23.0 mph N/A   Clear
12:55 PM 80.6 °F 1.4 °F 5% 30.05 in 10.0 mi NNE 18.4 mph 24.2 mph N/A   Clear
1:15 PM 80.6 °F 1.4 °F 5% 30.04 in 10.0 mi NNE 16.1 mph 24.2 mph N/A   Clear
1:35 PM 82.4 °F -0.4 °F 4% 30.03 in 10.0 mi NE 17.3 mph 26.5 mph N/A   Clear
2:15 PM 82.4 °F -0.4 °F 4% 30.02 in 10.0 mi North 13.8 mph 23.0 mph N/A   Clear
2:35 PM 84.2 °F -0.4 °F 4% 30.00 in 10.0 mi NE 13.8 mph 21.9 mph N/A   Clear
2:55 PM 84.2 °F -0.4 °F 4% 29.99 in 10.0 mi NNE 13.8 mph 25.3 mph N/A   Clear
3:15 PM 84.2 °F 1.4 °F 4% 29.99 in 10.0 mi NE 8.1 mph 17.3 mph N/A   Clear
3:35 PM 82.4 °F 1.4 °F 4% 29.97 in 10.0 mi NE 10.4 mph 23.0 mph N/A   Clear
3:55 PM 82.4 °F 1.4 °F 4% 29.96 in 10.0 mi North 12.7 mph 16.1 mph N/A   Clear
4:15 PM 84.2 °F 3.2 °F 5% 29.96 in 10.0 mi NE 12.7 mph 18.4 mph N/A   Clear
4:35 PM 84.2 °F 1.4 °F 4% 29.95 in 10.0 mi NE 9.2 mph - N/A   Clear
4:55 PM 84.2 °F 6.8 °F 5% 29.95 in 10.0 mi NE 6.9 mph - N/A   Clear
5:15 PM 82.4 °F 1.4 °F 4% 29.95 in 10.0 mi Calm Calm - N/A   Clear
5:35 PM 84.2 °F 1.4 °F 4% 29.94 in 10.0 mi ENE 6.9 mph - N/A   Clear
5:55 PM 82.4 °F 3.2 °F 5% 29.94 in 10.0 mi NE 11.5 mph - N/A   Clear
6:15 PM 82.4 °F 1.4 °F 4% 29.94 in 10.0 mi East 9.2 mph - N/A   Clear
6:35 PM 82.4 °F 6.8 °F 6% 29.94 in 10.0 mi ENE 6.9 mph - N/A   Clear
6:55 PM 80.6 °F 6.8 °F 6% 29.94 in 10.0 mi ENE 11.5 mph - N/A   Clear
7:15 PM 78.8 °F 6.8 °F 6% 29.95 in 10.0 mi ENE 11.5 mph - N/A   Clear
7:35 PM 77.0 °F 6.8 °F 7% 29.95 in 10.0 mi ENE 10.4 mph - N/A   Clear
7:55 PM 77.0 °F 5.0 °F 6% 29.96 in 10.0 mi NE 9.2 mph - N/A   Clear
8:15 PM 77.0 °F 1.4 °F 5% 29.97 in 10.0 mi NE 13.8 mph 18.4 mph N/A   Clear
8:35 PM 77.0 °F 3.2 °F 6% 29.98 in 10.0 mi ENE 13.8 mph 18.4 mph N/A   Clear
8:55 PM 75.2 °F 1.4 °F 6% 29.99 in 10.0 mi NE 11.5 mph - N/A   Clear
9:15 PM 75.2 °F 1.4 °F 6% 29.99 in 10.0 mi NE 12.7 mph 18.4 mph N/A   Clear
9:35 PM 75.2 °F 1.4 °F 6% 30.00 in 10.0 mi ENE 12.7 mph 20.7 mph N/A   Clear
9:55 PM 75.2 °F -0.4 °F 5% 30.00 in 10.0 mi ENE 13.8 mph 23.0 mph N/A   Clear
10:15 PM 75.2 °F 1.4 °F 6% 30.01 in 10.0 mi ENE 11.5 mph 23.0 mph N/A   Clear
10:35 PM 73.4 °F 1.4 °F 6% 30.01 in 10.0 mi ENE 12.7 mph 20.7 mph N/A   Clear
11:15 PM 71.6 °F 1.4 °F 6% 30.03 in 10.0 mi NE 10.4 mph - N/A   Clear
11:35 PM 71.6 °F 1.4 °F 6% 30.03 in 10.0 mi NE 10.4 mph 16.1 mph N/A   Clear
11:55 PM 71.6 °F -0.4 °F 6% 30.04 in 10.0 mi North 5.8 mph - N/A   Clear